This is the latest recevied weather packets stored in our database for station/object N4HAC. If no packets are shown the sender has not sent any weather packets the latest 10 day(s).
| Time | Temp. | Humidity | Pressure | Rain* | Wind** | Luminosity | Snow |
|---|---|---|---|---|---|---|---|
| 1777480869 | 14.44° C | 95% | 1006.7 hPa | 0 mm | - | 173 W/m² | - |
| 1777480566 | 14.44° C | 95% | 1007 hPa | 0 mm | - | 127 W/m² | - |
| 1777480262 | 14.44° C | 94% | 1006.9 hPa | 0 mm | - | 113 W/m² | - |
| 1777479958 | 14.44° C | 93% | 1006.7 hPa | 0 mm | - | 124 W/m² | - |
| 1777479655 | 14.44° C | 93% | 1007.1 hPa | 0 mm | - | 118 W/m² | - |
| 1777479354 | 14.44° C | 93% | 1007.1 hPa | 0 mm | - | 98 W/m² | - |
| 1777479049 | 13.89° C | 93% | 1007.3 hPa | 0 mm | - | 124 W/m² | - |
| 1777478746 | 13.89° C | 93% | 1007.1 hPa | 0 mm | - | 141 W/m² | - |
| 1777478442 | 13.89° C | 93% | 1007.4 hPa | 0 mm | - | 91 W/m² | - |
| 1777478139 | 13.89° C | 94% | 1007.5 hPa | 0 mm | - | 90 W/m² | - |
| 1777477836 | 13.89° C | 94% | 1007.4 hPa | 0 mm | - | 99 W/m² | - |
| 1777477531 | 13.33° C | 94% | 1007.6 hPa | 0 mm | - | 93 W/m² | - |
| 1777477228 | 13.33° C | 94% | 1007.7 hPa | 0 mm | - | 46 W/m² | - |
| 1777476924 | 13.33° C | 94% | 1007.7 hPa | 0 mm | - | 77 W/m² | - |
| 1777476623 | 13.33° C | 95% | 1007.7 hPa | 0 mm | - | 89 W/m² | - |
| 1777476319 | 13.33° C | 96% | 1007.6 hPa | 0 mm | - | 74 W/m² | - |
| 1777476015 | 13.33° C | 96% | 1007.5 hPa | 0 mm | - | 106 W/m² | - |
| 1777475710 | 13.33° C | 97% | 1007.7 hPa | 0 mm | - | 92 W/m² | - |
| 1777475407 | 12.78° C | 97% | 1007.8 hPa | 0 mm | - | 91 W/m² | - |
| 1777475102 | 12.78° C | 97% | 1007.8 hPa | 0 mm | - | 82 W/m² | - |
| 1777474799 | 13.33° C | 98% | 1007.6 hPa | 0 mm | - | 103 W/m² | - |
| 1777474495 | 13.33° C | 98% | 1007.9 hPa | 0 mm | - | 125 W/m² | - |
| 1777474191 | 12.78° C | 98% | 1008.1 hPa | 0 mm | - | 102 W/m² | - |
| 1777473889 | 12.78° C | 98% | 1008.1 hPa | 0 mm | - | 116 W/m² | - |
| 1777473587 | 12.78° C | 97% | 1008.4 hPa | 0 mm | - | 148 W/m² | - |
* Rain latest hour (hover to see other rain measurements)
** Current wind speed in m/s (hover to see current wind gust speed)